sat.trackr.live / text

‹ back to catalog

FLOCK 4Q-33

NORAD 58308 · 2023-174BE

PAYLOAD ACTIVE UNKNOWN

§ Identity

Operator
Country
US
Launch date
2023-11-11
Launch site
AFWTR
Launch vehicle
Mass (kg)
RCS (m²)

Purposes: earth_obs

External: N2YO · Heavens-Above · Gunter

§ Orbital elements

Epoch: 2026-06-16T04:58:10.987104Z

Period
92.42 min
Inclination
97.3869°
Eccentricity
0.0006513
Mean motion
15.58063756 rev/d
Perigee alt
388.9 km
Apogee alt
397.7 km
Semi-major
6,771.4 km
B*
3.5453e-4
RAAN
259.2324°
Arg perigee
136.1723°
Mean anomaly
224.0051°
Rev number
14,568

§ Raw data

FLOCK 4Q-331 58308U 23174BE  26167.20707161  .00026582  00000+0  35453-3 0  99922 58308  97.3869 259.2324 0006513 136.1723 224.0051 15.58063756145687

JSON: /api/v1/satellites/58308 · /tle

For live sub-satellite position, see the globe view (requires WebGL).

§ Visibility from observer

Set your observer location to see the next 7 days of passes ≥ 10°. The values pass through the URL so the page stays shareable.

No JS? Fill the form by hand. The geolocation button needs JavaScript.